Retour au catalogue

CZ-6A DEB

ActifPO
NORAD 61268·DEBRIS·🇨🇳 China

Lancé Aug 6, 2024 depuis Taiyuan Satellite Launch Center

Loading…

Prochains Passages (prochaines 24 heures)

TLE

FraisSource: Space-Track

Époque: Sep 14, 2026, 11:50 UTC

1 61268U 24140SD  26257.49332399  .00002798  00000-0  14650-2 0  9992
2 61268  88.9957 266.1386 0121025 332.6172  26.8667 14.10389873105340

Suivez CZ-6A DEB en temps réel avec AllMySat

Download on the App Store